Follow iAlert.com on twitter @ialertcom
Search For Active Alerts in Your Area  
  Hi Guest:  [ Sign-up / Services ] [ Login ]

Current weather by "City, St" or "zip code"  
 

Advertise Here

Current Conditions: Allentown Queen City Municipal Airport, PA

Mostly Cloudy


54.0 F

Last Updated on Nov 22 2017, 10:55 am EST
Humidity: 54%
Wind Speed: NW 5.8 mph
Barometer 29.94 in
Dewpoint: 37.4 F
Visibility: 10.00 mi
Precip: --
Heat Index: NA
Wind Chill: 53 F
Current conditions at:

Allentown Queen City Municipal Airport, PA (KXLL)

Lat: 40.57 Lon: 75.488

Local Radar Image active severe weather and emergency alerts image image weather storm and storm spotter reports image weather observation monitoring service image
Local
Radar
Active
Alerts
Storm Reports Obs
Monitoring

iAlert Weather and Emergency Alert Notification Services:


ialert severe weather and emergency alerts by text message and email ialert daily weather forecast by email and text message service ialert real-time weather-observation monitoring and alert notification service ialert storm report monitoring alert notification

Observation History for Allentown Queen City Municipal Airport, PA


Time Wind
(mph)
Vis
(mi)
Weather Precip (in) Temperature (F) Relative
Humidity
Wind
Chill
(°F)
Heat
Index
(°F)
Pressure
Air Dwpt altimeter
(in)
sea level
(mb)
10:55 am EST NW 5.8 10.00 Mostly Cloudy -- 54.0 37.4 54% 53 NA 29.94 M
9:55 am EST N 0.0 10.00 Fair -- 46.0 41.0 82% NA NA 29.94 M
9:35 am EST SW 4.6 10.00 Fair -- 45.0 41.0 87% 43 NA 29.94 M
8:55 am EST N 0.0 10.00 Mostly Cloudy -- 43.0 37.4 81% NA NA 29.94 M
8:35 am EST N 0.0 10.00 Overcast -- 41.0 37.4 87% NA NA 29.93 M
7:55 am EST N 0.0 10.00 Overcast -- 41.0 37.4 87% NA NA 29.94 M
6:55 am EST N 0.0 10.00 Light Rain -- 39.0 35.6 87% NA NA 29.93 M
5:55 am EST N 0.0 10.00 Overcast -- 37.0 35.6 93% NA NA 29.91 M
4:55 am EST N 0.0 10.00 Fair -- 37.0 33.8 87% NA NA 29.91 M
3:55 am EST N 0.0 10.00 Partly Cloudy -- 36.0 33.8 93% NA NA 29.94 M
2:55 am EST N 0.0 10.00 Fair -- 37.0 33.8 87% NA NA 29.95 M
1:35 am EST N 0.0 10.00 Partly Cloudy -- 37.0 33.8 87% NA NA 29.97 M
12:55 am EST N 0.0 10.00 Partly Cloudy -- 37.0 33.8 87% NA NA 29.98 M
12:35 am EST N 0.0 10.00 Fair -- 39.0 33.8 81% NA NA 29.99 M
11:55 pm EST N 0.0 10.00 Fair -- 39.0 35.6 87% NA NA 30.00 M
11:35 pm EST NW 3.5 10.00 Fair -- 41.0 35.6 81% NA NA 30.00 M
10:55 pm EST S 5.8 10.00 Fair -- 48.0 39.2 71% 45 NA 30.01 M
10:35 pm EST S 3.5 10.00 Fair -- 48.0 39.2 71% NA NA 30.02 M
9:55 pm EST SW 4.6 10.00 Fair -- 46.0 37.4 71% 44 NA 30.03 M
8:55 pm EST SW 6.9 10.00 Fair -- 48.0 35.6 62% 45 NA 30.03 M
8:35 pm EST SW 4.6 10.00 Fair -- 46.0 33.8 62% 44 NA 30.02 M
7:55 pm EST S 5.8 10.00 Fair -- 46.0 33.8 62% 43 NA 30.03 M
7:35 pm EST SW 4.6 10.00 Fair -- 45.0 32.0 61% 43 NA 30.03 M
6:55 pm EST SW 4.6 10.00 Fair -- 45.0 32.0 61% 43 NA 30.02 M

Regional Weather Observation


Allentown Queen City Municipal Airport, PA (KXLL)

Mostly Cloudy
54.0 F

Reading, Reading Regional Airport, PA (KRDG)

Fair and Breezy
53.0 F

Quakertown Airport, PA (KUKT)

Fair
52.0 F

Pottstown, Pottstown Limerick Airport, PA (KPTW)

Fair
53.0 F

Doylestown, Doylestown Airport, PA (KDYL)

Mostly Cloudy
52.0 F

Mount Pocono, Pocono Mountains Municipal Airport, PA (KMPO)

Overcast
37.0 F

Advertise Here